Location: Burleson Alternative School
(32.5290°N, 97.3406°W)
Time: 22:58:52
(UTC+00:00)

JUGNU - Pass Details

Date: 09 December 2024
Orbit: 834 x 861 km, 20.0° (Epoch: 19 January)

Event Time Altitude Azimuth Distance (km) Brightness Sun altitude
Exits shadow 10:03:19 13° 141° (SE) 2,220 ? -40.6°
Drops below altitude 10° 10:04:27 10° 131° (SE) 2,426 ? -40.4°
Sets 10:07:59 0° 110° (ESE) 3,361 ? -39.6°
